Theta_e
333 331 324 315 314 314 316 317 319 328 333 333 335 336 336 336 335 333 333 332 327 320 312 310 311 310 310 310 311 311 311 313 314 317 318 319 319 320 321 321 321 321 321 321 321 321 320 319 320 320 320 321 324 326 326 328 332 332 333 330 325 323
334 333 329 318 313 315 315 316 319 327 333 334 335 335 335 335 333 333 335 337 337 332 323 320 317 313 312 311 311 311 310 311 312 314 316 318 320 321 321 322 322 322 322 321 321 321 321 321 321 321 321 320 321 323 324 328 334 334 331 329 327 323
336 335 333 324 313 314 315 315 321 329 333 334 333 333 334 334 333 334 337 339 339 338 334 332 326 322 320 315 312 312 311 311 311 311 313 315 317 319 320 321 321 321 321 321 321 321 322 324 323 322 321 321 322 324 327 329 332 333 332 331 329 325
338 338 336 330 317 314 315 316 323 329 331 332 331 333 334 336 336 335 337 339 338 338 338 337 331 326 324 321 315 313 312 311 311 311 310 311 312 314 316 317 319 319 320 319 321 326 331 333 330 326 323 322 321 323 327 328 330 333 333 332 330 325
341 340 336 334 322 313 314 318 326 330 329 330 332 335 337 337 337 337 337 338 337 338 339 337 333 326 325 329 327 322 319 316 316 315 314 313 311 311 312 313 313 315 317 317 320 330 336 337 335 332 328 325 322 322 324 324 329 334 333 332 332 329
342 341 337 335 325 313 314 318 326 332 329 329 333 336 338 338 338 337 337 338 337 337 339 337 333 329 329 333 332 328 327 325 325 324 321 320 317 317 316 315 315 317 319 317 321 330 334 335 335 335 333 332 328 324 324 322 326 331 332 332 333 332
342 341 337 334 323 313 318 320 325 334 331 329 334 337 337 338 339 338 337 338 337 337 339 338 334 334 334 334 331 329 329 328 329 330 327 327 329 330 325 325 328 328 329 327 328 332 333 332 333 334 334 336 335 330 326 325 329 332 333 332 331 332
341 339 337 335 326 319 329 331 328 333 335 333 335 337 338 338 339 338 338 338 337 336 337 337 334 335 335 334 334 333 332 331 330 332 332 331 335 336 332 331 333 334 334 333 333 332 332 332 331 332 333 334 335 334 330 329 332 332 332 333 332 333
340 337 336 336 331 329 335 337 333 333 336 337 336 338 339 338 338 338 338 337 335 335 336 336 334 335 334 332 336 336 335 335 332 335 337 333 334 337 335 333 334 334 334 333 333 331 330 331 331 332 333 333 333 334 333 332 332 329 328 333 333 333
339 336 336 336 335 335 336 337 336 334 336 337 336 338 338 337 337 337 336 334 333 333 334 334 334 336 334 332 336 335 333 334 333 334 336 334 333 335 336 335 334 335 335 334 334 332 331 330 330 331 332 333 333 334 334 333 334 331 327 331 333 332
337 335 336 335 335 336 336 336 335 334 336 336 335 337 336 335 337 337 334 332 330 330 329 333 335 337 336 335 336 334 332 333 333 333 334 334 334 334 334 334 334 335 335 334 334 334 333 332 331 331 331 332 333 333 334 334 335 333 329 330 332 331
336 335 336 334 336 336 336 336 334 335 336 335 336 336 335 335 337 336 331 327 326 327 329 335 338 337 338 337 336 337 335 335 335 334 334 334 335 335 334 334 334 334 334 333 333 333 333 333 334 333 333 332 332 333 333 334 334 334 333 331 331 330
335 335 335 333 336 336 337 336 334 337 335 334 337 335 335 336 335 332 329 328 329 331 335 337 337 337 338 338 337 338 336 336 336 335 335 335 334 335 335 335 335 335 335 333 333 333 332 333 334 334 334 333 333 333 333 333 333 334 335 333 332 331
336 335 335 335 336 337 337 335 334 337 334 335 336 334 335 333 330 332 334 334 335 336 337 337 337 337 337 337 337 337 337 337 336 336 336 335 335 335 335 335 336 337 337 335 334 334 334 333 333 332 333 333 333 333 333 333 333 334 334 334 334 333
336 334 336 336 335 336 337 335 334 336 335 335 336 334 335 332 333 337 337 336 337 337 337 337 337 337 337 338 338 338 337 337 336 335 335 334 334 334 335 335 336 336 336 336 335 335 336 336 335 334 334 334 333 333 334 334 333 333 334 334 334 335
335 334 337 336 335 336 336 335 335 336 335 335 335 335 336 337 338 338 337 337 337 337 336 337 338 338 338 338 338 338 337 337 336 335 333 332 332 331 332 332 332 333 333 334 335 335 336 337 336 336 336 335 334 334 334 334 334 333 334 335 335 334
335 336 337 335 337 337 333 334 338 336 334 334 335 337 339 339 338 337 337 338 337 337 337 338 339 338 337 337 337 336 336 335 333 332 332 331 331 330 330 330 330 330 330 331 332 333 335 336 336 336 335 335 335 335 334 333 333 333 334 334 334 335
336 337 336 334 337 336 332 334 338 337 334 335 337 339 339 338 337 337 338 339 339 339 338 338 338 337 335 334 335 334 334 333 331 331 331 329 330 330 331 331 331 330 330 331 331 331 333 334 335 334 333 332 333 334 333 333 333 333 333 333 333 334
337 337 335 335 337 335 334 337 338 336 336 338 340 340 338 337 338 339 339 340 340 339 339 338 337 335 332 331 333 335 334 332 330 330 328 328 329 331 331 332 332 332 332 332 332 332 332 332 332 332 332 331 332 332 332 332 332 332 332 332 332 333
337 336 334 336 336 332 333 336 337 337 338 339 339 338 338 338 339 340 339 340 340 339 338 336 335 335 332 330 332 336 335 332 330 330 330 330 331 331 333 333 332 332 332 332 331 330 331 333 333 334 333 332 332 332 332 332 331 331 332 332 333 332
336 336 333 334 335 332 332 334 334 336 338 340 340 339 339 339 340 340 340 340 339 337 334 333 335 335 331 330 331 334 335 333 333 334 334 335 334 333 334 334 334 333 334 333 332 331 332 334 336 335 334 334 333 333 333 332 332 331 331 332 332 332
336 335 334 335 336 335 334 334 334 335 336 336 338 340 339 339 340 340 340 338 336 335 333 332 335 334 330 331 332 334 335 336 337 337 337 337 337 336 336 336 336 336 336 336 336 335 335 335 336 335 335 335 334 333 333 332 332 331 331 331 331 331
338 337 337 337 337 336 335 335 335 334 333 333 334 337 338 339 340 338 337 335 333 334 335 335 336 334 332 332 332 333 335 337 337 337 337 337 336 337 337 337 337 336 336 336 336 336 335 335 335 335 336 335 334 333 333 332 332 332 332 332 331 331
338 337 338 338 337 336 335 336 335 334 333 333 332 334 337 338 338 337 335 334 333 334 336 338 337 335 334 334 333 333 335 336 337 337 336 336 336 337 337 336 336 336 336 336 336 335 335 335 335 335 335 335 334 333 333 333 332 332 332 332 331 331
338 337 337 336 335 335 335 334 334 334 333 333 330 329 335 339 338 336 335 335 335 335 336 337 336 334 334 336 335 335 336 336 336 337 337 337 337 337 336 336 336 336 336 335 335 335 334 335 335 335 335 335 335 334 333 332 332 332 331 330 330 331
338 337 338 336 335 334 334 333 334 333 331 331 329 329 335 339 338 337 337 338 337 336 336 336 333 332 333 335 335 336 336 336 337 337 337 336 336 335 335 334 334 334 334 334 334 334 333 333 334 334 334 334 334 334 333 332 332 333 332 331 330 330
337 338 338 337 336 335 333 332 331 329 329 330 331 334 337 338 338 338 338 339 337 336 336 335 332 332 333 334 335 336 336 336 336 335 334 333 333 332 331 331 331 330 330 330 330 330 330 331 331 331 332 333 332 333 333 332 332 332 332 331 330 330
338 338 338 337 336 335 331 328 329 328 332 335 335 336 338 338 339 338 337 337 335 334 335 334 333 333 333 334 335 335 335 334 333 332 332 332 333 332 331 331 330 330 330 329 329 329 329 329 329 329 329 331 332 332 332 332 332 332 332 332 331 330
338 337 338 337 335 334 330 329 331 332 335 338 336 337 338 338 339 337 337 337 336 335 336 335 335 334 334 334 333 333 332 332 331 332 332 333 333 332 331 331 330 329 329 329 329 329 329 329 330 330 329 330 331 331 332 332 332 332 331 331 331 331
337 337 337 337 335 334 331 329 332 334 337 337 335 336 338 338 337 337 337 337 337 337 337 336 336 335 334 333 331 331 330 330 331 331 331 331 331 330 330 330 330 330 329 330 329 329 330 330 330 330 330 330 331 331 331 331 331 331 331 331 331 331
335 336 337 337 335 333 331 330 332 332 335 334 332 334 338 338 337 338 338 338 338 337 336 336 335 334 332 330 330 330 328 328 329 328 328 328 328 329 329 330 329 329 329 329 328 328 328 329 329 330 330 330 331 331 331 331 331 331 331 330 330 330
332 334 336 336 335 334 332 331 330 329 331 331 330 333 337 338 338 338 338 337 337 336 335 334 332 331 330 329 328 325 323 324 326 327 327 327 327 328 328 328 327 327 327 327 327 327 327 327 328 330 330 330 331 331 331 331 331 331 330 330 330 329
330 333 335 334 333 334 332 329 328 329 329 330 330 333 336 337 338 337 337 336 335 334 333 332 331 331 331 328 325 322 322 323 324 325 326 326 326 326 326 326 327 327 327 327 327 328 328 328 329 330 330 331 331 331 331 331 331 331 329 329 330 329
332 333 333 332 331 330 328 327 327 327 327 328 331 334 336 337 337 336 336 334 333 332 332 331 330 330 328 325 323 322 323 323 323 324 324 324 325 326 326 326 327 327 327 327 328 328 329 330 330 331 331 331 331 331 331 331 331 331 330 329 330 329
334 332 330 329 329 328 327 328 328 328 327 327 330 334 335 336 336 335 334 332 331 331 331 329 328 327 325 323 323 322 321 321 321 321 321 322 323 324 325 326 327 328 328 328 329 329 330 331 331 332 332 332 331 331 331 331 331 331 330 330 330 329
333 330 328 327 328 328 329 330 328 328 328 327 331 335 335 334 334 332 331 330 329 329 328 326 326 325 324 323 323 320 318 318 318 318 319 320 320 322 323 324 326 327 328 329 329 329 330 331 331 331 331 331 331 331 331 330 330 330 330 330 329 329
333 330 329 329 330 329 330 332 331 331 331 331 334 335 333 332 331 329 329 328 327 326 325 323 323 323 323 322 320 317 315 317 317 318 319 320 320 322 323 324 325 325 326 327 328 329 330 331 331 331 331 331 330 330 330 330 329 330 329 329 328 328
Wind_Speed
17 17 17 19 20 21 21 20 21 21 18 17 16 14 12 10 9 8 8 9 10 10 7 6 5 5 5 6 6 6 6 7 10 11 11 11 10 10 9 8 7 6 5 4 3 3 3 3 3 4 5 8 7 5 6 9 7 3 5 8 6 5
16 16 16 18 20 21 22 21 22 22 19 17 16 14 13 11 10 9 9 9 9 9 7 6 4 4 4 5 5 5 5 4 6 8 10 10 10 10 9 8 7 6 5 4 3 3 2 2 1 2 3 4 4 4 3 7 6 4 6 9 6 5
17 16 16 17 19 21 22 22 23 21 18 17 16 15 14 12 10 10 9 9 8 7 6 4 4 4 3 3 5 5 5 4 4 5 6 7 8 9 8 8 8 7 6 4 3 2 1 0 2 3 4 4 5 6 3 4 6 4 7 11 8 7
17 16 16 17 19 21 22 23 23 22 19 17 18 16 14 13 11 10 9 9 8 8 6 3 2 2 1 2 4 4 4 4 4 4 4 4 5 6 6 7 7 7 6 5 4 2 2 5 7 6 6 6 7 8 6 4 5 3 8 14 11 8
17 16 16 17 19 21 23 24 23 22 20 18 18 16 14 13 12 10 9 9 8 8 7 4 3 2 2 3 3 3 3 3 4 4 4 4 4 4 5 6 7 7 5 6 5 1 1 8 12 11 10 8 9 9 8 6 6 4 8 13 12 11
18 16 15 16 19 22 22 23 23 21 20 19 17 16 15 13 12 11 10 9 8 7 6 5 5 4 4 4 3 3 3 2 2 3 2 2 4 4 4 6 6 6 4 5 5 0 3 9 11 12 13 12 11 10 9 9 6 6 9 12 13 14
20 18 14 14 19 21 21 20 21 21 21 20 18 15 14 13 13 12 11 10 9 8 8 6 6 6 3 2 2 2 1 1 1 2 0 2 1 4 5 4 7 8 8 6 3 3 7 11 12 12 12 13 14 12 11 10 7 9 12 13 14 15
20 19 16 14 17 20 19 18 19 20 20 18 17 15 13 13 12 13 12 11 11 9 7 5 5 6 5 4 3 4 2 2 1 1 3 1 4 7 8 2 4 8 9 8 7 8 10 12 14 14 13 13 14 14 13 11 11 13 14 14 15 15
21 21 19 16 16 19 19 17 18 17 18 18 17 17 14 13 13 14 13 12 12 10 7 5 6 6 7 10 9 8 6 4 2 3 7 6 6 8 8 5 7 10 11 10 10 10 10 12 13 14 15 14 13 15 15 14 14 16 15 14 17 17
22 23 21 19 17 19 19 18 19 16 17 17 15 16 17 16 14 13 13 14 14 13 11 9 9 8 9 11 11 10 11 10 8 9 11 8 7 9 9 9 9 10 11 10 10 10 10 12 13 13 15 16 15 16 17 16 15 17 16 15 17 19
23 25 23 21 20 19 20 20 19 17 15 14 12 14 15 14 13 12 14 15 14 14 12 10 10 9 10 9 9 8 9 9 8 10 11 9 9 10 10 11 12 12 12 11 13 13 13 13 13 14 14 15 16 17 19 17 17 18 17 16 18 20
23 24 22 21 21 21 21 20 20 18 17 16 14 16 13 13 14 14 14 13 13 14 12 10 11 10 9 8 8 7 7 7 7 8 9 9 9 10 10 11 12 13 13 13 14 15 15 14 14 15 15 16 16 17 20 19 18 20 19 18 20 22
24 23 21 20 20 22 22 21 20 18 17 18 17 18 15 15 16 15 12 11 12 13 11 10 10 9 8 7 7 6 7 7 7 7 7 7 8 9 10 10 10 11 12 12 12 13 15 15 16 16 18 18 17 18 19 19 19 20 21 20 20 22
26 24 22 20 20 21 20 21 21 17 17 18 17 16 16 16 16 13 11 11 10 10 9 8 8 8 7 6 6 6 6 6 7 7 7 7 7 8 9 9 9 10 11 12 12 12 13 15 16 17 18 18 18 19 19 20 21 20 21 22 21 21
24 23 22 20 20 20 19 19 18 17 18 18 17 16 15 14 13 11 10 10 9 8 8 8 7 7 7 6 6 5 5 5 6 6 7 7 8 8 9 9 10 11 12 13 13 13 14 16 16 16 17 17 18 20 21 21 22 22 23 24 23 22
22 23 22 19 19 18 19 18 15 16 18 17 17 16 14 12 11 9 8 8 9 8 7 7 7 7 7 7 6 6 6 7 7 7 8 9 9 9 11 11 12 12 13 14 14 14 15 16 18 19 18 18 18 20 22 22 23 23 24 25 25 26
22 24 20 18 18 16 19 19 15 17 16 15 16 15 13 11 10 9 8 8 8 8 8 7 8 8 9 8 6 6 7 8 8 7 8 8 8 8 9 9 9 10 12 12 13 13 14 15 17 19 19 19 19 21 21 21 23 25 26 27 27 27
22 23 19 18 16 15 19 18 15 17 14 14 14 13 12 11 10 9 8 8 8 9 8 8 9 9 10 8 6 6 7 7 6 6 7 7 8 7 7 7 7 8 9 10 12 13 14 14 16 18 19 19 19 20 20 20 21 23 26 27 27 27
21 20 18 18 14 15 19 15 14 13 12 13 13 13 12 11 10 9 8 8 8 8 8 8 9 8 7 6 5 5 5 5 5 6 7 8 7 7 8 8 9 10 10 12 13 14 15 15 17 18 19 19 19 20 21 21 21 22 25 25 25 25
21 18 19 19 16 18 21 17 12 10 12 13 14 13 12 11 9 8 9 9 8 8 8 7 6 5 4 3 4 5 6 6 6 6 7 7 6 6 8 10 11 12 13 14 14 15 16 16 18 18 18 19 19 19 19 21 22 23 24 25 25 24
22 20 20 21 18 19 22 18 14 12 12 12 12 12 11 11 10 9 9 9 9 7 6 4 4 4 1 1 2 3 4 5 6 6 7 8 7 7 8 10 11 12 13 14 13 13 14 15 17 19 19 19 18 19 20 21 21 20 21 22 23 24
22 21 20 19 17 17 17 15 14 13 12 11 10 10 10 11 11 10 9 8 7 5 3 2 3 2 2 2 1 1 3 5 6 7 9 9 9 10 10 11 11 12 12 13 14 13 13 16 18 18 19 20 21 20 20 20 20 20 20 20 20 22
21 20 18 17 16 15 14 13 13 12 12 11 10 11 11 11 10 9 8 6 5 5 3 1 1 2 2 1 1 3 4 6 8 9 9 9 11 11 11 12 12 14 14 14 16 15 15 17 20 19 18 19 19 19 20 19 17 16 18 19 19 20
20 19 17 16 16 16 15 14 13 12 12 11 11 11 11 11 9 8 7 6 4 4 3 2 2 3 2 2 4 5 6 7 9 10 10 9 10 9 10 12 12 14 15 16 17 17 16 16 19 19 18 17 17 18 18 15 13 14 16 18 18 18
21 19 17 17 17 18 17 16 15 14 13 13 13 11 11 11 9 8 7 5 5 4 4 5 5 4 3 5 5 6 7 8 8 10 10 11 11 10 11 12 10 12 14 16 17 18 17 15 16 17 18 20 18 16 16 17 19 20 19 19 20 21
21 20 19 18 18 18 18 17 16 15 16 15 14 12 13 11 8 7 7 6 6 5 5 5 6 6 6 6 6 6 8 8 9 10 12 13 13 13 14 13 12 13 13 14 16 19 18 16 15 16 17 19 20 18 20 23 24 22 22 22 22 22
19 19 19 19 19 19 18 17 15 14 15 13 12 11 12 11 9 9 9 7 6 6 4 4 5 8 9 8 7 7 8 9 10 10 12 12 13 13 13 13 13 13 13 14 16 18 19 18 17 17 16 17 20 22 23 23 22 22 24 24 24 23
18 18 19 19 20 19 18 18 16 15 15 12 11 12 13 13 12 10 9 7 6 5 4 4 5 8 9 9 7 8 9 9 10 10 10 9 10 11 11 12 12 13 14 14 15 16 18 18 19 19 17 16 18 20 21 22 22 22 22 24 26 26
19 19 20 20 21 20 19 18 17 16 16 14 13 14 14 14 12 10 7 6 5 4 4 5 6 6 6 7 7 8 9 9 9 9 9 9 10 10 12 13 14 15 15 15 15 16 18 18 18 18 18 18 19 19 20 21 21 20 20 23 26 26
22 21 20 20 21 21 19 18 15 14 15 14 14 13 13 13 11 9 7 6 5 5 5 6 6 6 6 7 8 9 9 9 9 9 10 11 11 11 11 12 13 14 14 15 15 16 17 17 17 18 18 19 20 20 21 22 21 21 21 23 24 26
23 22 20 20 22 21 19 18 15 13 14 13 13 11 11 11 10 8 8 7 7 6 6 6 6 7 9 10 11 11 10 10 8 8 9 10 11 11 11 12 13 14 15 15 16 16 17 17 17 17 17 18 19 20 21 22 22 21 22 24 25 27
23 22 21 22 22 21 20 18 15 14 14 12 12 12 11 11 10 9 8 7 7 7 6 6 7 8 11 12 12 11 9 7 7 6 8 8 9 11 11 12 13 13 14 14 14 15 15 16 16 17 17 18 19 19 20 21 22 22 22 23 24 27
24 24 23 24 23 21 20 19 17 16 15 12 11 12 12 13 12 11 9 8 8 8 8 8 9 11 13 13 10 8 4 4 4 4 5 7 9 9 10 11 12 12 12 12 13 14 14 15 15 17 18 18 18 19 21 22 22 21 21 21 22 25
26 26 26 25 24 22 21 19 18 17 15 13 12 11 12 12 11 11 11 11 10 10 11 11 11 13 13 10 6 4 2 3 4 5 6 7 8 7 8 10 10 10 11 11 12 13 14 15 16 17 17 17 19 20 21 21 20 19 20 21 21 23
28 28 27 25 24 23 21 20 18 16 16 15 12 10 10 11 12 12 12 12 12 13 13 13 13 11 8 5 4 3 3 3 4 5 6 7 7 7 8 8 8 8 10 10 12 13 14 15 16 16 16 18 19 20 19 19 19 19 19 21 22 22
29 28 27 25 24 22 20 19 19 17 17 16 14 11 10 11 12 12 11 12 12 13 13 13 11 8 4 3 4 4 3 4 5 6 6 7 7 7 8 8 8 8 8 9 11 12 13 15 15 16 17 17 18 19 18 17 18 20 21 21 21 20
29 28 27 26 24 22 20 19 19 18 18 18 16 14 12 11 10 10 11 11 9 10 11 9 7 5 3 3 4 5 5 5 5 6 6 6 7 7 8 7 7 6 7 8 10 11 13 15 14 15 16 16 16 18 17 16 18 19 20 21 19 18
Wind_Direction
157 156 154 155 156 156 157 158 156 155 155 156 157 156 153 149 142 130 125 122 112 109 120 127 122 124 126 127 130 128 132 144 153 160 163 163 162 160 161 161 162 161 157 157 153 141 141 140 148 156 161 157 142 135 135 115 105 132 255 268 273 280
162 162 160 161 161 159 158 158 157 155 156 158 157 156 155 153 146 135 132 132 119 107 114 119 108 113 121 127 133 135 135 139 151 162 169 172 174 174 173 171 171 172 170 166 153 137 134 131 167 192 205 208 207 242 171 126 127 155 251 269 281 289
166 166 167 167 165 162 160 158 156 154 156 157 157 157 157 155 150 141 139 135 128 120 114 99 92 102 106 133 138 144 146 147 158 165 177 182 186 188 189 192 188 187 188 181 172 185 206 309 287 252 245 248 245 260 259 144 140 133 261 268 277 285
166 164 170 171 169 166 163 158 155 155 155 157 159 161 159 158 157 153 148 137 134 130 122 103 104 120 128 155 146 148 156 157 168 176 191 196 204 212 211 214 211 208 205 199 202 201 255 286 296 284 263 259 258 270 278 220 163 137 267 268 274 277
166 163 169 172 173 170 166 159 156 155 154 158 163 164 163 165 165 164 155 143 144 136 136 162 173 194 191 176 166 158 168 168 180 188 188 206 214 227 239 243 241 233 229 223 220 124 223 270 288 289 278 268 262 269 277 244 193 181 257 269 275 279
164 164 172 171 172 171 168 162 156 155 158 162 166 169 169 172 172 169 166 155 157 149 153 183 181 193 209 206 197 178 184 182 213 193 167 244 221 213 250 262 264 255 263 242 223 270 271 262 276 285 288 287 277 270 273 263 228 215 255 268 269 276
163 163 167 164 170 168 163 162 159 159 166 168 169 175 173 176 178 173 175 169 167 164 171 192 184 182 200 232 246 239 242 250 237 193 65 349 225 268 296 308 311 308 315 313 290 290 265 255 258 265 276 284 283 275 265 263 251 244 258 264 263 271
166 162 158 161 169 161 156 163 165 163 166 172 174 174 176 182 183 178 179 178 174 173 180 194 191 186 176 172 223 267 298 307 320 39 288 258 163 263 289 290 288 292 289 286 272 255 251 256 261 262 263 264 272 276 268 257 247 244 250 258 260 265
166 157 155 170 167 154 157 167 175 171 166 178 179 168 178 189 185 184 186 187 182 173 176 194 202 201 189 179 192 207 196 220 220 184 252 245 185 226 260 233 226 246 252 261 266 254 247 255 260 265 267 262 258 263 268 266 257 252 250 255 262 263
164 153 162 177 161 156 164 173 181 176 170 177 176 171 182 190 186 188 193 194 190 180 180 194 199 201 200 193 194 199 192 200 204 199 224 238 212 213 230 234 229 239 248 259 268 262 254 254 256 261 266 270 264 257 262 263 258 260 257 255 264 266
162 157 173 173 156 164 170 179 178 167 176 172 173 190 188 181 177 189 202 202 200 196 195 190 188 197 203 203 205 207 205 211 213 214 226 231 229 226 229 236 233 235 239 242 244 243 245 246 249 253 254 264 267 260 258 254 251 258 259 254 259 264
163 163 174 165 159 171 172 181 170 163 186 170 179 204 186 171 176 194 210 208 206 203 200 184 180 197 202 202 211 213 218 230 228 230 245 240 235 240 244 250 247 244 251 257 251 245 246 248 251 252 248 251 258 266 266 260 256 257 259 260 259 262
170 169 167 164 168 175 174 179 166 169 185 168 187 203 182 181 188 199 202 189 192 188 187 186 185 199 197 195 210 224 229 238 244 246 260 254 246 253 257 263 262 260 268 272 268 261 259 259 258 256 254 253 254 266 272 267 263 260 264 269 263 261
175 171 163 171 176 173 173 175 167 171 174 171 192 192 180 189 190 194 186 174 180 179 183 187 190 200 199 198 209 226 228 232 242 245 255 256 251 254 256 261 263 267 272 275 277 278 276 271 268 264 263 263 256 257 262 263 264 265 268 269 264 261
179 165 163 179 176 170 171 172 169 170 172 181 189 180 181 185 180 184 181 179 183 185 189 184 189 199 197 204 214 224 229 237 243 247 254 256 255 255 257 260 258 261 265 267 272 278 282 283 284 280 276 273 263 259 261 262 263 263 265 268 267 264
177 157 166 182 168 168 169 159 164 177 181 183 180 178 180 174 176 180 177 187 191 191 192 189 198 204 203 205 213 222 228 239 248 259 264 263 267 268 267 264 261 264 266 264 264 269 275 277 280 281 281 276 269 269 270 267 263 261 264 268 269 266
171 156 171 172 158 172 165 149 171 196 192 178 173 176 176 172 176 177 180 194 196 197 195 196 205 210 211 205 209 227 235 246 252 256 260 263 267 272 272 270 272 275 276 273 267 266 268 269 272 275 278 276 273 276 277 273 265 261 262 265 267 267
163 163 168 154 156 172 158 154 186 205 195 174 170 172 173 175 176 178 189 198 200 202 201 207 217 222 218 204 204 222 231 242 249 251 257 262 265 276 280 275 284 289 288 285 280 278 276 274 274 276 279 279 277 278 280 280 274 268 268 269 272 270
159 163 154 143 159 162 153 168 194 202 190 172 168 170 173 176 179 184 191 201 204 202 209 217 222 229 222 198 189 211 238 253 262 266 274 279 278 284 287 287 289 290 288 285 284 286 285 283 283 282 282 282 282 282 282 283 280 276 275 277 279 276
157 153 146 152 167 163 165 181 189 193 188 177 173 171 174 176 181 191 191 201 203 205 222 224 219 229 223 183 168 192 237 277 299 296 295 295 291 281 280 286 287 287 287 286 285 285 287 289 289 288 286 287 290 291 289 288 285 280 278 278 279 279
160 161 163 170 174 173 179 185 185 188 188 185 179 174 179 177 180 192 192 200 205 215 232 212 200 233 261 119 137 182 239 286 306 299 297 303 307 297 285 285 287 289 291 293 290 287 287 287 286 288 293 296 296 295 294 295 294 288 283 281 281 281
166 172 173 171 173 180 186 187 187 188 185 186 186 189 191 181 182 189 192 202 202 208 224 160 177 248 354 60 65 290 267 286 285 272 274 284 293 292 291 294 294 292 291 292 292 293 292 287 286 288 293 295 294 295 295 296 300 298 293 291 288 286
167 173 170 166 172 179 178 180 185 184 183 184 190 204 203 188 185 185 186 193 176 178 198 129 168 276 339 26 281 268 261 275 277 274 275 279 287 290 293 296 294 293 293 289 288 290 290 289 289 290 291 290 291 296 297 298 301 299 298 297 295 292
172 174 171 168 170 173 173 176 177 176 183 182 183 203 207 191 184 178 176 177 163 169 178 172 219 256 280 259 255 253 253 263 270 281 286 286 289 290 291 291 293 296 296 293 292 290 287 286 287 289 289 286 290 295 293 294 295 294 300 302 300 296
174 175 174 172 171 172 175 178 177 178 182 181 176 191 204 192 179 175 171 171 176 181 185 201 220 236 249 250 253 250 253 262 269 278 279 276 275 272 274 278 283 289 292 295 297 294 290 289 290 292 292 290 292 287 281 292 297 294 298 301 299 296
173 174 175 174 174 174 175 179 182 183 184 184 177 182 194 185 168 169 168 174 187 194 207 216 225 245 253 247 249 256 258 260 260 266 271 274 276 276 277 277 277 280 286 290 291 292 292 293 294 294 297 298 297 289 289 301 303 298 299 298 298 297
175 175 178 177 177 175 174 176 179 185 189 187 175 172 182 176 169 180 180 188 199 200 218 243 250 257 260 250 244 251 257 257 257 265 274 279 284 289 289 286 282 281 285 289 291 294 294 295 295 294 297 301 300 300 304 307 303 301 302 301 302 302
175 177 181 181 181 174 171 173 176 186 189 180 168 171 183 179 177 188 190 194 206 208 228 266 269 259 258 255 250 254 260 264 267 272 277 281 289 296 297 295 293 291 291 292 293 294 295 297 299 297 295 295 297 302 306 306 303 302 300 299 304 307
179 179 180 183 181 173 172 174 179 188 188 180 173 175 184 181 177 184 186 185 199 221 244 259 264 260 255 253 255 259 259 261 264 270 276 278 280 284 289 294 295 295 293 291 290 292 293 293 294 294 296 297 298 301 303 305 306 305 300 299 303 306
183 180 181 184 178 172 174 177 183 190 188 184 179 174 177 177 173 172 172 176 190 221 246 253 257 257 253 245 244 247 251 254 255 263 272 274 275 277 283 289 291 288 288 288 289 290 291 291 292 294 298 299 299 303 307 307 307 306 304 302 301 303
182 180 182 182 175 173 177 180 184 185 183 180 178 184 183 171 164 165 172 185 198 218 239 252 260 262 258 249 246 252 256 256 253 261 272 274 277 279 279 281 282 283 285 289 292 294 295 296 299 301 303 302 301 304 307 306 305 304 303 303 302 301
180 182 182 178 176 175 178 181 179 178 183 178 180 198 191 168 166 172 176 191 209 224 230 241 252 252 252 252 255 262 262 256 254 261 272 279 282 283 284 286 289 291 294 296 300 303 304 303 302 302 303 303 303 303 303 303 303 302 302 305 305 302
180 183 180 177 177 176 179 181 176 177 178 175 189 205 190 173 174 173 178 196 216 226 217 220 234 237 245 255 262 270 276 279 287 286 282 287 288 290 296 298 301 306 307 307 309 311 310 308 306 305 304 304 304 302 300 300 303 307 308 306 305 304
182 180 176 176 176 176 178 178 177 181 179 180 195 200 181 175 182 184 194 211 224 228 218 215 228 237 244 254 267 283 302 309 314 308 292 290 292 292 295 298 303 310 313 313 314 314 312 310 309 307 306 306 305 302 301 303 305 311 311 307 307 307
180 175 173 174 174 177 178 175 175 180 182 186 194 195 184 185 201 210 214 225 230 227 221 217 227 242 249 257 281 299 299 295 299 298 293 293 294 287 283 286 290 300 310 315 312 310 312 312 312 313 311 312 311 307 307 311 311 312 312 310 310 309
176 172 170 169 170 173 174 171 171 174 178 181 186 202 209 206 216 226 223 226 228 225 224 220 223 242 260 263 286 304 303 301 304 307 307 301 299 295 289 287 284 286 299 309 305 307 316 319 321 324 321 320 321 316 312 315 317 318 317 314 310 306
174 171 167 166 167 169 169 168 167 170 172 173 183 201 217 220 225 228 219 216 219 222 225 217 216 238 261 271 292 313 321 323 320 321 321 316 319 321 317 317 312 301 297 294 294 310 326 328 328 331 329 328 330 325 318 318 322 323 323 320 313 306